This is the latest recevied weather packets stored in our database for station/object KF0WJA. If no packets are shown the sender has not sent any weather packets the latest 10 day(s).
| Time | Temp. | Humidity | Pressure | Rain* | Wind** | Luminosity | Snow |
|---|---|---|---|---|---|---|---|
| 1787666612 | 25° C | 83% | 1018.7 hPa | 0 mm | - | 126 W/m² | - |
| 1787666311 | 25° C | 83% | 1019.1 hPa | 0 mm | - | 120 W/m² | - |
| 1787666007 | 24.44° C | 84% | 1018.6 hPa | 0 mm | - | 189 W/m² | - |
| 1787665702 | 24.44° C | 85% | 1018.3 hPa | 0 mm | - | 201 W/m² | - |
| 1787665397 | 24.44° C | 86% | 1017.9 hPa | 0 mm | - | 191 W/m² | - |
| 1787665093 | 23.89° C | 86% | 1017.9 hPa | 0 mm | - | 181 W/m² | - |
| 1787664790 | 23.89° C | 87% | 1017.8 hPa | 0 mm | - | 167 W/m² | - |
| 1787664489 | 23.33° C | 88% | 1018 hPa | 0 mm | - | 146 W/m² | - |
| 1787664184 | 22.78° C | 89% | 1018.1 hPa | 0 mm | - | 84 W/m² | - |
| 1787663883 | 22.78° C | 90% | 1018.1 hPa | 0 mm | - | 102 W/m² | - |
| 1787663579 | 22.22° C | 91% | 1018.2 hPa | 0 mm | - | 74 W/m² | - |
| 1787663274 | 22.22° C | 92% | 1018 hPa | 0 mm | - | 64 W/m² | - |
| 1787662970 | 21.67° C | 93% | 1017.8 hPa | 0 mm | - | 57 W/m² | - |
| 1787662665 | 21.67° C | 94% | 1017.8 hPa | 0 mm | - | 52 W/m² | - |
| 1787662365 | 21.11° C | 94% | 1017.9 hPa | 0 mm | - | 47 W/m² | - |
| 1787662061 | 21.11° C | 94% | 1017.7 hPa | 0 mm | - | 42 W/m² | - |
| 1787661757 | 20.56° C | 95% | 1017.7 hPa | 0 mm | - | 38 W/m² | - |
| 1787661456 | 20.56° C | 96% | 1017.8 hPa | 0 mm | - | 34 W/m² | - |
| 1787661155 | 20.56° C | 96% | 1017.7 hPa | 0 mm | - | 30 W/m² | - |
| 1787660854 | 20° C | 96% | 1017.4 hPa | 0 mm | - | 26 W/m² | - |
| 1787660549 | 20° C | 96% | 1017.7 hPa | 0 mm | - | 21 W/m² | - |
| 1787660250 | 20° C | 96% | 1017.4 hPa | 0 mm | - | 17 W/m² | - |
| 1787659945 | 20° C | 97% | 1017.3 hPa | 0 mm | - | 14 W/m² | - |
| 1787659641 | 19.44° C | 97% | 1017.3 hPa | 0 mm | - | 11 W/m² | - |
| 1787659338 | 19.44° C | 97% | 1017.4 hPa | 0 mm | - | 7 W/m² | - |
* Rain latest hour (hover to see other rain measurements)
** Current wind speed in m/s (hover to see current wind gust speed)